Hagerstown, MD

3:04 AM EST on November 12, 2019 (GMT -0500)
Hagerstown Regional-Henson

Weather History for KHGR - September, 2019

Change the Weather History Date:

Monday, September 23, 2019

  Actual Average Record
Temperature  
Mean Temperature 79 °F 63 °F  
Max Temperature 89 °F 73 °F 91 °F (2010)
Min Temperature 68 °F 53 °F 43 °F (2014)
Degree Days  
Heating Degree Days 0 4  
Month to date heating degree days 1 34  
Since 1 July heating degree days 1 39  
Cooling Degree Days 14 2  
Month to date cooling degree days 190 84  
Year to date cooling degree days 1399 952  
Growing Degree Days 28 (Base 50)    
Moisture  
Dew Point 62 °F    
Average Humidity 57    
Maximum Humidity 78    
Minimum Humidity 36    
Precipitation  
Precipitation T in 0.14 in 0.91 in (2003)
Month to date precipitation 0.39 2.69  
Year to date precipitation 28.76 29.32  
Sea Level Pressure  
Sea Level Pressure 29.93 in    
Wind  
Wind Speed 7 mph (SW)    
Max Wind Speed 20 mph    
Max Gust Speed 26 mph    
Visibility 10 miles    
Events Rain    
T = Trace of Precipitation, MM = Missing Value Source: NWS Daily Summary

Daily Weather History Graph

Daily Weather History Graph

Search for Another Location

Airport or City:

Astronomy

Sep. 23, 2019 Rise Set
Actual Time 6:59 AM EDT 7:06 PM EDT
Civil Twilight 6:32 AM EDT 7:33 PM EDT
Nautical Twilight 6:00 AM EDT 8:05 PM EDT
Astronomical Twilight 5:28 AM EDT 8:36 PM EDT
Moon 12:41 AM EDT (9/23) 3:57 PM EDT (9/23)
Length of Visible Light 13h 01m
Length of Day
12h 07m
Waning Crescent, 33% of the Moon is Illuminated
Sep 23
Waning Crescent
Sep 28
New
Oct 5
First Quarter
Oct 13
Full
Oct 21
Last Quarter

Hourly Weather History & Observations

Time (EDT) Temp. Heat Index Dew Point Humidity Pressure Visibility Wind Dir Wind Speed Gust Speed Precip Events Conditions
12:53 AM 75.9 °F - 64.9 °F 69% 30.00 in 10.0 mi SSE 8.1 mph - N/A   Clear
1:53 AM 73.9 °F - 64.9 °F 73% 29.99 in 10.0 mi South 5.8 mph - N/A   Clear
2:53 AM 73.0 °F - 64.0 °F 73% 29.98 in 10.0 mi South 4.6 mph - N/A   Clear
3:53 AM 73.0 °F - 63.0 °F 71% 29.97 in 10.0 mi SSW 3.5 mph - N/A   Clear
4:53 AM 71.1 °F - 63.0 °F 75% 29.96 in 10.0 mi South 6.9 mph - N/A   Partly Cloudy
5:53 AM 70.0 °F - 62.1 °F 76% 29.97 in 10.0 mi South 5.8 mph - N/A   Clear
6:53 AM 70.0 °F - 63.0 °F 78% 29.98 in 10.0 mi SSE 5.8 mph - N/A   Clear
7:53 AM 69.1 °F - 63.0 °F 81% 29.99 in 8.0 mi South 5.8 mph - N/A   Clear
8:53 AM 73.9 °F - 63.0 °F 68% 29.99 in 10.0 mi South 5.8 mph - N/A   Clear
9:53 AM 81.0 °F 81.1 °F 57.9 °F 45% 29.97 in 10.0 mi SW 9.2 mph - N/A   Clear
10:53 AM 82.9 °F 82.4 °F 57.0 °F 41% 29.95 in 10.0 mi WSW 11.5 mph 17.3 mph N/A   Clear
11:53 AM 87.1 °F 85.9 °F 57.0 °F 36% 29.93 in 10.0 mi WSW 10.4 mph - N/A   Clear
12:53 PM 88.0 °F 86.7 °F 57.0 °F 35% 29.91 in 10.0 mi West 16.1 mph 23.0 mph N/A   Mostly Cloudy
1:53 PM 86.0 °F 84.9 °F 57.0 °F 37% 29.89 in 10.0 mi West 11.5 mph 19.6 mph N/A   Overcast
2:53 PM 82.9 °F 83.3 °F 61.0 °F 47% 29.88 in 10.0 mi WNW 8.1 mph - 0.00 in   Overcast
3:53 PM 80.1 °F 81.7 °F 64.0 °F 58% 29.87 in 9.0 mi Calm Calm - 0.00 in Rain Light Rain
4:53 PM 81.0 °F 82.2 °F 63.0 °F 54% 29.86 in 10.0 mi South 4.6 mph - 0.00 in   Overcast
5:53 PM 81.0 °F 81.9 °F 62.1 °F 52% 29.86 in 10.0 mi West 8.1 mph - N/A   Overcast
6:53 PM 79.0 °F - 63.0 °F 58% 29.86 in 10.0 mi WSW 6.9 mph - 0.00 in   Overcast
7:53 PM 75.0 °F - 66.0 °F 73% 29.88 in 10.0 mi SSW 6.9 mph - N/A   Overcast
8:53 PM 75.9 °F - 63.0 °F 64% 29.87 in 10.0 mi SW 5.8 mph - N/A   Mostly Cloudy
9:53 PM 73.9 °F - 63.0 °F 68% 29.88 in 10.0 mi SW 5.8 mph - N/A   Overcast
10:53 PM 72.0 °F - 63.0 °F 73% 29.89 in 10.0 mi West 3.5 mph - N/A   Clear
11:53 PM 72.0 °F - 63.0 °F 73% 29.88 in 10.0 mi WSW 4.6 mph - N/A   Mostly Cloudy